M0ZPG Weather Reports


time (UTC)temp
F
wind
direction
speed
knots
gust
knots
rain 1hr
in
rain 24hr
in
rain mn
in
humidity
%
barometer
mb
20260502204503 59 119 0.9 4.3 0.00 0.01 0.01 86 1010.4
20260502203605 59 118 0.9 3.5 0.00 0.01 0.01 85 1010.4
20260502202704 59 98 0.0 3.5 0.00 0.01 0.01 85 1010.6
20260502202017 59 98 0.0 2.6 0.00 0.01 0.01 85 1010.5
20260502201119 60 94 0.9 5.2 0.00 0.01 0.01 84 1010.2
20260502200216 60 103 0.9 6.1 0.00 0.01 0.01 84 1010.2
20260502194504 60 115 0.0 1.7 0.00 0.01 0.01 83 1010.6
20260502193606 60 120 0.9 3.5 0.00 0.01 0.01 83 1010.6
20260502192705 60 115 0.9 2.6 0.00 0.01 0.01 82 1010.5
20260502191803 60 143 0.9 3.5 0.00 0.01 0.01 82 1010.4
20260502190005 60 91 0.9 3.5 0.00 0.01 0.01 83 1010.5
20260502185406 60 92 0.9 2.6 0.00 0.01 0.01 83 1010.6
20260502183605 60 92 0.0 2.6 0.00 0.01 0.01 82 1010.6
20260502182704 60 89 0.9 5.2 0.00 0.01 0.01 83 1010.8
20260502181803 59 98 0.9 3.5 0.00 0.01 0.01 83 1010.7
20260502180903 59 81 0.9 3.5 0.00 0.01 0.01 83 1010.9
20260502180217 59 91 0.9 5.2 0.00 0.01 0.01 83 1011.0
20260502170213 60 137 0.0 2.6 0.01 0.01 0.01 82 1011.7
20260502163603 65 130 1.7 7.8 0.00 0.00 0.00 71 1012.3
20260502162703 66 136 1.7 6.1 0.00 0.00 0.00 65 1012.0
20260502161803 67 146 1.7 4.3 0.00 0.00 0.00 64 1011.9
20260502160904 68 136 1.7 7.0 0.00 0.00 0.00 62 1011.7
20260502152015 71 147 1.7 4.3 0.00 0.00 0.00 52 1012.4
20260502150906 72 144 1.7 5.2 0.00 0.00 0.00 52 1012.4
20260502123605 72 178 0.0 2.6 0.00 0.00 0.00 46 1014.7
20260502122703 71 179 0.0 2.6 0.00 0.00 0.00 47 1014.7
20260502121804 71 183 0.9 2.6 0.00 0.00 0.00 45 1014.9
20260502120905 70 208 0.9 2.6 0.00 0.00 0.00 45 1015.0
20260502115406 70 250 0.9 2.6 0.00 0.00 0.00 48 1015.2
20260502114505 70 203 0.0 2.6 0.00 0.00 0.00 51 1015.4
20260502113605 69 191 0.9 5.2 0.00 0.00 0.00 46 1015.6
20260502112705 68 175 0.9 1.7 0.00 0.00 0.00 48 1015.5
20260502111805 68 165 0.9 1.7 0.00 0.00 0.00 50 1015.6
20260502110906 67 157 0.0 1.7 0.00 0.00 0.00 49 1015.5
20260502110004 66 156 0.9 2.6 0.00 0.00 0.00 57 1015.8
20260502105403 66 164 0.9 4.3 0.00 0.00 0.00 60 1016.0
20260502104504 67 180 0.9 2.6 0.00 0.00 0.00 59 1016.2
20260502103603 66 181 0.9 2.6 0.00 0.00 0.00 61 1016.1
20260502102705 66 199 0.9 2.6 0.00 0.00 0.00 62 1016.0
20260502100903 64 272 0.0 2.6 0.00 0.00 0.00 67 1016.4
20260502100218 64 271 0.0 1.7 0.00 0.00 0.00 69 1016.4
20260502090905 60 235 0.0 2.6 0.00 0.00 0.00 75 1016.8
20260502070905 52 237 0.0 2.6 0.00 0.00 0.00 90 1017.4
20260502070003 51 245 0.0 1.7 0.00 0.00 0.00 91 1017.4
20260502065403 51 246 0.0 3.5 0.00 0.00 0.00 91 1017.4
20260502064506 51 248 0.0 2.6 0.00 0.00 0.00 91 1017.4
20260502063605 51 247 0.0 2.6 0.00 0.00 0.00 91 1017.3
20260502062918 50 244 0.9 3.5 0.00 0.00 0.00 92 1017.4
20260502061803 50 179 0.9 2.6 0.00 0.00 0.00 92 1017.3
20260502061118 50 176 0.0 2.6 0.00 0.00 0.00 92 1017.4
20260502060215 50 186 0.9 3.5 0.00 0.00 0.00 91 1017.4
20260502055616 50 205 0.9 2.6 0.00 0.00 0.00 92 1017.4
20260502054505 50 180 0.0 0.9 0.00 0.00 0.00 92 1017.3
20260502053816 50 180 0.0 1.7 0.00 0.00 0.00 92 1017.4
20260502052703 50 0 0.0 0.0 0.00 0.00 0.00 92 1017.3
20260502051803 50 180 0.0 0.9 0.00 0.00 0.00 92 1017.3
20260502050903 50 180 0.0 1.7 0.00 0.00 0.00 92 1017.3
20260502050006 49 180 0.0 0.9 0.00 0.00 0.00 92 1017.3
20260502045403 49 180 0.0 0.9 0.00 0.00 0.00 92 1017.3
20260502044505 49 0 0.0 0.0 0.00 0.00 0.00 92 1017.3
20260502043605 49 180 0.0 0.9 0.00 0.00 0.00 92 1017.2
20260502042705 49 0 0.0 0.0 0.00 0.00 0.00 92 1017.1
20260502041804 49 180 0.0 0.9 0.00 0.00 0.00 91 1017.1
20260502040905 49 0 0.0 0.0 0.00 0.00 0.00 91 1017.2
20260502040005 49 180 0.0 0.9 0.00 0.00 0.00 91 1017.1
20260502035405 50 180 0.0 0.9 0.00 0.00 0.00 91 1017.3
20260502034503 50 180 0.0 0.9 0.00 0.00 0.00 91 1017.4
20260502033813 50 180 0.0 0.9 0.00 0.00 0.00 91 1017.4
20260502032920 50 180 0.0 1.7 0.00 0.00 0.00 91 1017.4
20260502032017 50 180 0.0 1.7 0.00 0.00 0.00 91 1017.5
20260502031114 50 180 0.0 0.9 0.00 0.00 0.00 90 1017.6
20260502030005 50 180 0.0 1.7 0.00 0.00 0.00 90 1017.5
20260502025403 50 180 0.0 1.7 0.00 0.00 0.00 90 1017.5
20260502024506 50 180 0.0 0.9 0.00 0.00 0.00 89 1017.6
20260502023818 51 180 0.0 0.9 0.00 0.00 0.00 89 1017.6
20260502022703 51 180 0.0 0.9 0.00 0.00 0.00 89 1017.6
20260502021805 51 180 0.0 2.6 0.00 0.00 0.00 89 1017.6
20260502020906 51 179 0.0 2.6 0.00 0.00 0.00 89 1017.6
20260502020005 51 175 0.0 2.6 0.00 0.00 0.00 89 1017.7
20260502015403 51 172 0.0 1.7 0.00 0.00 0.00 89 1017.7
20260502014503 51 171 0.0 1.7 0.00 0.00 0.00 88 1017.8
20260502013604 51 172 0.0 0.9 0.00 0.00 0.00 88 1017.9
20260502012705 52 171 0.0 0.9 0.00 0.00 0.00 87 1018.0
20260502011805 52 171 0.0 0.9 0.00 0.00 0.00 87 1018.0
20260502010905 52 171 0.0 0.9 0.00 0.00 0.00 87 1017.9
20260502010005 52 171 0.0 0.9 0.00 0.00 0.00 86 1018.1
20260502005405 52 171 0.0 1.7 0.00 0.00 0.00 86 1018.2
20260502004717 52 171 0.0 1.7 0.00 0.00 0.00 86 1018.3
20260502003608 53 171 0.0 0.9 0.00 0.00 0.00 85 1018.6
20260502002703 53 171 0.0 1.7 0.00 0.00 0.00 85 1018.6
20260502001805 53 171 0.0 1.7 0.00 0.00 0.00 84 1018.8
20260502000903 54 171 0.0 0.9 0.00 0.00 0.00 84 1018.8
20260502000005 54 171 0.0 1.7 0.00 0.00 0.00 84 1018.8
20260501235404 54 171 0.0 1.7 0.00 0.00 0.00 83 1018.8
20260501234503 55 172 0.0 2.6 0.00 0.00 0.00 83 1018.8
20260501233815 55 174 0.9 2.6 0.00 0.00 0.00 83 1018.9
20260501232703 56 159 0.9 4.3 0.00 0.00 0.00 82 1018.9
20260501231805 56 164 0.9 3.5 0.00 0.00 0.00 81 1019.0
20260501230903 57 175 0.9 3.5 0.00 0.00 0.00 81 1019.1
20260501230214 57 185 0.9 3.5 0.00 0.00 0.00 80 1019.1
20260501225405 58 182 0.0 2.6 0.00 0.00 0.00 80 1019.1
20260501224504 58 179 0.0 1.7 0.00 0.00 0.00 80 1018.8
20260501223605 58 179 0.0 1.7 0.00 0.00 0.00 79 1018.8
20260501222705 58 189 0.9 2.6 0.00 0.00 0.00 79 1018.8
20260501221804 59 209 0.0 1.7 0.00 0.00 0.00 79 1018.9
20260501221118 59 200 0.0 2.6 0.00 0.00 0.00 79 1018.9
20260501220215 60 193 0.0 2.6 0.00 0.00 0.00 78 1018.9
20260501215617 60 211 0.9 2.6 0.00 0.00 0.00 78 1018.8
20260501214505 61 250 0.0 1.7 0.00 0.00 0.00 78 1018.7
20260501213603 61 250 0.0 3.5 0.00 0.00 0.00 77 1018.6
20260501212705 62 220 0.9 4.3 0.00 0.00 0.00 77 1018.6
20260501211805 62 166 0.9 2.6 0.00 0.00 0.00 76 1018.8
20260501210904 62 162 0.9 3.5 0.00 0.00 0.00 75 1018.8
20260501210005 63 172 0.9 7.0 0.00 0.00 0.00 75 1018.8